Weather History for St. Petersburg, FL

Change the Weather History Date:

Friday, December 26, 2014

  Actual Average Record
Temperature  
Mean Temperature 64 °F -  
Max Temperature 70 °F 68 °F 80 °F (1962)
Min Temperature 57 °F 53 °F 26 °F (1983)
Degree Days  
Heating Degree Days 2    
Growing Degree Days 14 (Base 50)    
Moisture  
Dew Point 56 °F    
Average Humidity 74    
Maximum Humidity 81    
Minimum Humidity 63    
Precipitation  
Precipitation 0.00 in - - ()
Sea Level Pressure  
Sea Level Pressure 30.21 in    
Wind  
Wind Speed 10 mph (ENE)    
Max Wind Speed 15 mph    
Max Gust Speed -    
Visibility 10 miles    
Events      
Averages and records for this station are not official NWS values.
T = Trace of Precipitation, MM = Missing Value Source: NWS Daily Summary

Daily Weather History Graph

Daily Weather History Graph

Search for Another Location

Airport:

Trip Planner

Search our weather history database for the weather conditions in past years. The results will help you decide how hot, cold, wet, or windy it might be!

Date:

Astronomy

Dec. 26, 2014 Rise Set
Actual Time 7:19 AM EST 5:42 PM EST
Civil Twilight 6:53 AM EST 6:08 PM EST
Nautical Twilight 6:24 AM EST 6:37 PM EST
Astronomical Twilight 5:55 AM EST 7:06 PM EST
Moon 10:54 AM EST (12/26) 10:57 PM EST (12/26)
Length of Visible Light 11h 14m
Length of Day
10h 23m
Waxing Crescent, 27% of the Moon is Illuminated
Dec 26
Waxing Crescent
Dec 28
First Quarter
Jan 4
Full
Jan 13
Last Quarter
Jan 20
New

Hourly Weather History & Observations

Time (EST) Temp. Dew Point Humidity Pressure Visibility Wind Dir Wind Speed Gust Speed Precip Events Conditions
12:53 AM 59.0 °F 52.0 °F 78% 30.20 in 10.0 mi NE 12.7 mph - N/A   Clear
1:53 AM 57.9 °F 52.0 °F 81% 30.20 in 10.0 mi NE 12.7 mph - N/A   Clear
2:53 AM 57.9 °F 52.0 °F 81% 30.20 in 10.0 mi NE 10.4 mph - N/A   Overcast
3:53 AM 59.0 °F 52.0 °F 78% 30.21 in 10.0 mi ENE 12.7 mph - N/A   Overcast
4:53 AM 57.9 °F 51.1 °F 78% 30.20 in 10.0 mi ENE 12.7 mph - N/A   Overcast
5:53 AM 59.0 °F 52.0 °F 78% 30.20 in 10.0 mi ENE 12.7 mph - N/A   Mostly Cloudy
6:53 AM 59.0 °F 52.0 °F 78% 30.21 in 10.0 mi ENE 15.0 mph - N/A   Clear
7:53 AM 59.0 °F 52.0 °F 78% 30.22 in 10.0 mi East 11.5 mph - N/A   Clear
8:53 AM 60.1 °F 53.1 °F 78% 30.23 in 10.0 mi East 11.5 mph - N/A   Clear
9:53 AM 61.0 °F 54.0 °F 78% 30.25 in 10.0 mi East 10.4 mph - N/A   Clear
10:53 AM 63.0 °F 55.0 °F 75% 30.24 in 10.0 mi East 9.2 mph - N/A   Clear
11:53 AM 66.0 °F 55.9 °F 70% 30.22 in 10.0 mi ENE 6.9 mph - N/A   Clear
12:53 PM 68.0 °F 55.0 °F 63% 30.19 in 10.0 mi ENE 6.9 mph - N/A   Scattered Clouds
1:53 PM 69.1 °F 55.9 °F 63% 30.18 in 10.0 mi ENE 4.6 mph - N/A   Overcast
2:53 PM 70.0 °F 57.0 °F 63% 30.17 in 10.0 mi East 5.8 mph - N/A   Overcast
3:53 PM 69.1 °F 57.9 °F 68% 30.17 in 10.0 mi East 4.6 mph - N/A   Overcast
4:53 PM 69.1 °F 59.0 °F 70% 30.17 in 10.0 mi East 9.2 mph - N/A   Scattered Clouds
5:53 PM 68.0 °F 60.1 °F 76% 30.19 in 10.0 mi East 5.8 mph - N/A   Overcast
6:53 PM 68.0 °F 60.1 °F 76% 30.20 in 10.0 mi NE 5.8 mph - N/A   Overcast
7:48 PM 68.0 °F 60.8 °F 78% 30.21 in 10.0 mi NE 6.9 mph - N/A   Overcast
7:53 PM 68.0 °F 59.0 °F 73% 30.21 in 10.0 mi NE 6.9 mph - N/A   Overcast
8:53 PM 68.0 °F 59.0 °F 73% 30.22 in 10.0 mi NE 5.8 mph - N/A   Overcast
9:53 PM 68.0 °F 59.0 °F 73% 30.22 in 10.0 mi NE 6.9 mph - N/A   Overcast
10:53 PM 68.0 °F 60.1 °F 76% 30.22 in 10.0 mi NE 8.1 mph - N/A   Overcast
11:53 PM 66.9 °F 60.1 °F 79% 30.20 in 10.0 mi NE 5.8 mph - N/A   Overcast